User: anonymous   Login
Location: Unspecified
(0.0000°N, 0.0000°E)
Time: 23:45:33
(UTC+00:00)
Language:

MOS 1 - Orbit

View from above orbital plane
View from above orbital plane
View from above satellite
View from above satellite

Ground track
Ground track

The orbit data is extracted from the following two-line orbital elements,

1 17527U 87018A   17348.94433014 -.00000098 +00000-0 -33647-4 0  9993
2 17527 099.2579 006.2174 0008990 149.5434 273.1891 14.02491586574581
Epoch (UTC): 14 December 2017 22:39:50
Eccentricity: 0.0008990
inclination: 99.2579°
perigee height: 878 km
apogee height: 892 km
right ascension of ascending node: 6.2174°
argument of perigee: 149.5434°
revolutions per day: 14.02491586
mean anomaly at epoch: 273.1891°
orbit number at epoch: 57458

The dashed part of the orbit path shows where the satellite is in the earth's shadow,  

DLR